Theta_e
290 289 289 289 289 290 289 289 289 289 288 288 287 287 287 288 289 288 288 288 289 288 288 288 288 288 289 288 289 288 288 287 287 288 288 288 287 288 287 287 288 287
289 289 289 289 289 289 289 289 289 289 289 289 289 288 288 288 288 289 288 288 288 288 288 288 288 288 288 287 288 287 287 287 286 288 287 287 287 287 287 287 287 288
289 289 289 288 288 288 288 289 289 289 288 289 289 289 289 289 288 288 288 288 288 288 288 288 288 288 287 287 287 287 287 287 286 287 287 287 287 286 287 287 287 287
288 289 288 288 289 288 289 288 288 289 289 289 288 289 289 289 289 288 288 288 288 287 288 288 287 287 287 287 287 286 287 286 287 287 286 286 286 286 286 286 286 286
288 288 288 288 288 289 289 288 288 288 288 288 289 289 288 289 289 288 288 288 288 287 287 287 287 287 287 287 287 286 286 286 286 286 286 285 286 286 286 286 285 285
288 289 288 288 289 288 288 288 288 288 288 288 288 288 288 289 288 288 288 288 288 288 287 287 287 287 287 287 286 286 286 286 286 286 285 285 285 286 286 286 285 285
288 288 288 288 288 288 288 288 288 288 288 288 288 288 288 288 288 288 288 288 287 287 287 287 287 287 287 287 286 285 285 285 285 285 285 285 285 285 286 285 285 285
288 288 289 289 288 288 288 288 288 288 288 288 287 288 288 288 288 288 288 288 287 287 287 287 287 287 287 287 286 285 285 286 286 285 284 284 284 284 285 285 285 284
288 288 288 288 288 288 288 288 288 288 288 288 288 288 288 288 288 288 288 288 287 287 287 287 287 287 287 287 286 286 285 285 285 285 284 284 284 284 284 284 284 284
288 288 288 288 287 288 288 288 288 288 288 288 288 288 288 289 289 288 288 288 287 287 287 287 287 287 287 287 286 286 285 285 285 285 284 284 284 284 284 284 284 283
288 288 288 287 287 287 288 288 288 288 288 288 288 288 289 289 288 289 288 287 287 286 286 286 286 286 286 286 286 286 286 285 285 285 285 284 284 284 284 284 284 283
288 288 287 287 287 288 288 288 288 288 288 288 288 288 288 288 288 287 288 287 286 286 287 286 286 286 286 286 286 286 286 285 285 285 285 285 285 285 284 284 284 283
287 287 288 288 288 288 288 288 288 288 288 288 289 288 288 287 288 287 288 287 287 287 287 286 286 286 286 286 286 285 285 285 285 285 285 285 285 285 285 285 284 284
288 288 288 288 288 288 288 288 288 288 288 288 288 287 287 287 287 287 287 288 287 287 287 287 286 286 286 286 286 285 285 285 285 285 285 285 285 284 284 284 284 284
288 288 288 288 288 287 287 287 288 288 288 288 288 287 288 288 288 288 287 286 286 286 286 286 286 286 286 286 285 284 285 285 285 284 284 284 284 284 284 284 284 284
288 288 288 287 287 286 287 287 287 288 288 287 287 287 287 287 287 287 286 286 285 286 286 286 286 286 285 284 284 284 285 285 284 284 284 283 283 283 283 283 283 283
287 287 287 287 287 287 287 287 287 287 287 287 287 287 287 286 286 285 285 285 285 285 285 285 286 286 285 285 285 285 284 284 283 283 283 283 282 282 282 282 282 282
287 287 287 287 287 287 287 287 287 287 286 286 286 286 286 286 285 285 285 285 285 285 284 285 285 285 284 284 284 284 284 283 283 283 282 282 282 282 281 281 281 281
287 286 286 287 287 287 287 287 286 286 286 286 285 286 286 285 285 285 285 285 285 284 284 285 285 284 284 283 283 283 283 283 283 282 282 281 281 281 281 280 280 280
286 286 286 286 287 287 287 286 286 285 286 286 286 286 285 285 285 284 285 284 284 284 284 284 284 284 283 283 283 283 283 283 282 281 281 281 281 281 280 280 280 279
286 286 286 286 286 286 286 285 285 285 285 286 285 285 285 284 284 284 284 284 284 284 284 283 283 282 282 282 282 282 282 282 281 281 280 280 280 280 280 280 279 279
286 286 286 286 286 286 285 285 285 285 285 285 285 285 285 285 284 284 284 283 283 283 282 282 282 282 281 281 281 281 281 280 280 279 279 279 279 279 279 280 279 279
285 285 285 285 285 285 284 284 284 284 284 285 284 284 284 283 283 283 283 283 283 282 281 280 280 281 280 280 280 280 280 279 279 278 278 278 278 279 279 279 279 279
286 285 285 285 284 284 284 284 284 285 285 285 283 283 283 283 283 283 283 282 281 280 280 279 279 279 279 280 280 279 279 278 278 277 277 277 277 278 278 278 278 279
286 285 285 285 284 284 284 284 284 284 284 283 283 282 282 282 282 282 281 280 280 279 279 278 278 278 279 279 279 279 278 278 277 277 276 276 276 276 277 277 277 278
286 285 285 285 284 285 285 285 285 284 283 282 282 282 281 281 280 280 278 278 279 278 278 278 277 278 278 278 278 278 278 277 277 276 275 275 275 275 275 275 276 276
Wind_Speed
4 4 5 5 5 5 5 5 5 5 5 5 6 5 5 5 5 6 7 7 7 7 8 8 8 8 7 7 7 6 7 7 7 7 7 7 7 8 7 8 8 7
4 4 4 4 4 4 4 4 4 5 5 5 4 4 4 4 4 5 5 5 6 7 6 7 7 7 7 7 7 7 6 7 7 6 6 8 6 7 7 8 7 8
3 3 4 4 4 4 4 3 3 4 4 4 4 4 3 3 4 4 5 5 5 6 6 6 6 7 7 7 6 6 6 7 7 7 7 7 6 7 7 7 7 8
2 2 2 2 3 3 2 3 3 3 3 3 3 3 2 2 3 4 4 5 5 5 5 6 6 6 7 7 6 6 6 6 6 7 6 6 6 7 7 7 7 7
3 3 2 2 1 1 1 2 2 2 2 2 2 1 2 1 2 2 3 3 4 4 4 5 5 5 6 6 6 6 6 6 6 6 6 7 6 6 6 7 8 9
4 3 3 3 3 2 2 2 1 1 1 1 1 0 1 1 1 2 2 3 3 3 4 4 5 5 5 5 5 5 5 5 6 6 6 6 6 6 6 7 9 9
5 5 5 4 4 3 3 3 3 3 2 1 1 1 1 1 0 1 1 2 3 4 5 5 5 5 5 4 5 5 5 5 5 6 6 6 6 7 7 7 8 9
6 5 5 4 5 5 5 5 4 4 4 4 4 3 3 3 2 1 1 2 3 4 5 5 5 6 5 5 5 6 6 4 5 6 7 7 6 7 7 6 7 9
6 5 5 6 6 5 6 6 6 5 5 5 5 4 4 4 3 3 3 3 4 4 5 5 6 6 5 5 5 6 6 6 6 6 7 7 7 8 8 8 9 9
7 7 6 7 7 6 7 7 6 6 5 6 5 4 4 4 4 4 3 4 5 6 6 6 7 6 6 6 6 6 6 7 7 7 7 7 8 8 8 8 9 10
9 8 8 8 9 8 8 8 7 6 6 6 5 5 5 3 4 3 4 5 6 7 7 7 7 8 8 7 7 7 7 7 8 7 7 8 8 8 8 9 9 10
9 9 9 10 10 9 9 8 7 7 6 5 5 5 4 4 5 5 5 7 7 7 7 8 8 8 8 8 8 8 7 8 8 8 8 8 8 9 9 9 9 10
10 10 10 10 9 9 8 7 7 7 6 6 5 5 5 6 6 6 6 6 7 7 7 8 8 8 8 8 8 8 9 9 9 9 9 8 8 9 10 10 11 11
11 11 10 10 9 8 8 8 7 7 7 6 5 6 6 7 7 7 7 6 6 6 7 7 7 8 8 8 8 8 9 9 9 10 10 10 11 11 11 11 11 12
10 9 8 8 8 8 8 8 8 7 7 6 6 6 6 7 7 7 6 7 7 7 7 6 6 7 6 6 7 8 9 9 10 11 11 12 12 12 12 12 12 12
10 8 8 9 8 9 9 9 8 8 7 7 7 7 7 6 6 6 7 8 7 7 7 6 6 6 7 9 10 8 9 9 10 11 11 12 12 13 12 12 12 12
9 9 9 10 10 9 9 9 9 7 7 8 8 8 8 7 6 7 8 7 8 8 8 7 6 6 8 9 10 12 10 10 11 11 12 12 12 13 13 13 12 13
10 10 10 11 10 10 10 9 8 8 8 8 8 9 8 7 8 9 8 8 7 8 8 8 7 8 8 9 11 13 13 11 11 11 11 12 12 13 12 12 14 13
10 11 11 11 11 10 9 8 8 8 9 9 10 10 7 8 9 8 8 8 8 9 9 8 7 6 7 9 11 13 15 14 11 12 12 13 13 14 14 14 13 14
11 11 12 12 11 9 8 8 9 9 10 9 8 7 8 9 9 10 9 9 8 8 7 6 7 4 6 10 12 14 15 15 12 13 13 14 14 14 14 15 15 14
11 11 12 12 11 9 9 9 10 9 9 9 8 8 8 8 8 9 8 8 7 6 6 5 5 6 9 12 13 15 16 16 12 12 13 13 13 14 15 15 15 14
11 11 11 10 10 9 9 10 10 10 10 8 7 7 7 7 7 7 7 6 6 6 5 6 6 8 10 11 13 14 17 12 12 12 13 13 14 14 15 14 14 15
11 11 10 10 9 9 9 10 10 10 9 7 7 7 7 7 7 6 6 5 5 4 5 6 7 8 10 11 12 15 14 11 11 12 12 14 14 14 14 14 14 15
10 9 9 9 8 10 10 9 8 7 7 6 6 6 7 7 5 5 4 4 4 5 5 6 7 8 10 12 13 14 14 12 12 12 13 13 14 14 13 13 15 20
7 8 9 9 9 10 9 9 9 7 5 4 5 5 5 3 4 3 3 3 4 5 5 7 9 9 11 13 14 14 12 11 11 12 13 13 13 14 14 13 14 15
6 7 8 9 10 10 8 8 6 4 5 5 4 3 3 3 3 3 4 4 3 5 6 7 8 8 8 12 13 15 16 12 11 12 13 14 14 13 14 14 15 16
Wind_Direction
66 73 74 76 74 73 77 81 80 76 71 70 72 65 59 55 45 48 49 49 46 45 42 38 35 34 32 34 33 38 39 35 32 23 25 25 28 23 22 16 15 7
74 74 84 90 91 83 79 82 88 89 86 83 80 81 74 62 52 51 47 49 49 47 42 39 36 34 30 29 27 30 32 30 27 18 15 21 20 14 14 7 5 358
84 86 81 85 91 90 87 81 83 86 86 83 88 83 81 63 57 50 45 38 43 41 37 35 34 32 28 25 20 29 25 23 22 13 10 12 10 11 359 359 355 352
115 96 96 92 97 101 97 97 95 97 102 93 81 80 75 72 60 56 53 42 40 37 32 30 27 25 21 18 14 21 14 18 15 4 3 1 2 1 354 352 347 344
166 163 160 153 134 113 111 110 94 91 92 102 108 104 89 73 73 60 52 46 40 31 29 25 23 21 15 12 9 12 6 6 5 357 352 350 348 350 342 339 339 336
187 189 183 183 185 192 188 167 173 158 158 150 126 96 95 37 52 50 35 30 19 15 8 11 8 8 8 5 360 7 358 356 349 344 341 338 337 337 332 328 328 327
196 193 195 197 195 204 214 197 197 207 206 214 225 210 224 237 230 359 5 1 355 352 350 346 349 344 350 347 346 344 340 334 330 329 326 323 324 321 321 321 319 317
218 210 207 205 211 207 217 215 211 214 213 215 225 221 218 231 237 237 276 312 322 323 325 327 325 328 328 330 328 326 323 319 313 315 315 315 314 314 316 315 312 310
233 229 219 222 223 224 220 220 218 218 214 219 225 224 217 228 232 234 251 271 290 300 307 309 310 311 311 307 307 308 309 308 305 305 306 307 310 310 312 313 311 310
234 237 234 232 233 232 233 228 222 218 213 220 225 225 226 222 225 235 255 287 297 302 303 303 303 300 297 295 291 291 291 294 295 294 294 298 302 304 307 308 308 309
234 233 234 234 234 237 235 234 230 225 217 221 223 228 231 241 247 253 281 290 289 291 294 293 294 294 292 290 289 284 284 286 288 291 292 293 295 297 297 300 303 303
231 232 235 236 235 235 235 233 230 229 227 226 225 242 250 254 269 273 270 277 278 280 282 284 286 288 288 290 292 293 292 291 292 294 296 296 297 296 297 299 298 300
229 231 234 237 235 234 231 225 223 222 220 224 216 229 242 252 252 255 256 257 264 269 270 274 279 282 284 286 290 294 295 295 296 296 297 299 297 299 299 299 298 298
227 230 231 234 237 234 232 231 226 221 220 221 208 218 227 236 243 246 252 245 253 255 262 264 268 270 275 279 285 291 294 296 298 302 304 304 304 301 300 297 296 295
225 227 227 232 233 233 233 232 228 228 226 221 216 222 228 231 236 239 241 244 242 243 248 250 253 260 263 274 289 293 296 300 302 301 301 300 299 299 297 295 294 294
222 222 225 229 229 228 226 224 225 225 225 227 227 230 231 230 228 231 234 240 243 241 240 240 245 248 245 248 262 279 297 300 301 300 300 299 298 296 293 292 291 290
219 224 224 226 226 226 226 224 227 225 226 231 233 232 231 226 227 230 232 232 234 239 242 241 240 244 241 255 274 285 293 299 301 301 299 297 295 294 293 294 292 290
222 225 225 228 226 226 226 226 226 228 230 232 235 236 232 224 226 232 233 233 231 232 237 238 243 245 251 272 285 292 296 298 300 298 297 295 293 292 292 292 292 291
221 224 227 228 226 224 223 220 222 227 233 233 233 233 230 226 230 230 232 231 232 234 235 238 244 244 252 279 288 293 296 297 294 295 293 291 290 290 289 288 288 288
222 223 227 229 228 223 218 219 221 224 228 230 231 228 227 233 234 232 232 232 232 238 243 249 259 253 271 286 291 293 295 296 291 290 288 286 286 285 283 283 284 284
222 223 226 230 228 222 217 220 221 226 228 227 222 224 225 227 230 232 232 233 234 237 246 255 259 264 272 283 289 292 294 295 289 287 285 284 282 280 278 279 280 279
220 221 224 226 227 220 217 221 219 221 224 220 217 222 225 229 234 232 234 228 231 237 250 260 266 261 269 278 288 292 294 292 288 286 284 283 280 278 277 276 277 277
217 218 222 223 221 219 220 222 221 222 224 213 212 218 223 220 225 225 222 227 228 234 255 270 275 274 275 279 286 292 294 289 288 286 283 282 279 277 277 276 276 276
219 218 227 231 224 224 226 226 227 229 225 199 211 220 222 222 220 219 217 219 235 253 260 274 280 280 276 276 280 286 289 289 287 285 283 281 281 279 278 277 275 274
233 227 228 231 231 231 228 230 226 222 209 191 213 217 225 212 210 227 233 239 239 254 258 262 274 275 270 271 276 282 285 286 286 285 284 283 283 283 281 280 283 281
226 222 225 226 231 234 229 229 223 203 195 200 197 197 197 204 213 237 252 254 254 253 256 254 266 273 273 273 276 280 282 284 285 284 283 285 284 285 288 287 287 286